TimePST,TemperatureF,Dew PointF,Humidity,Sea Level PressureIn,VisibilityMPH,Wind Direction,Wind SpeedMPH,Gust SpeedMPH,PrecipitationIn,Events,Conditions,WindDirDegrees,DateUTC
12:53 AM,27.0,25.0,92,29.93,10.0,North,3.5,-,N/A,,Clear,360,2013-01-29 08:53:00
1:53 AM,28.0,25.0,88,29.95,10.0,NNE,3.5,-,N/A,,Clear,20,2013-01-29 09:53:00
3:53 AM,28.0,25.0,88,30.00,10.0,North,6.9,-,N/A,,Clear,10,2013-01-29 11:53:00
4:53 AM,27.0,24.1,89,30.02,10.0,North,3.5,-,N/A,,Clear,350,2013-01-29 12:53:00
5:53 AM,27.0,24.1,89,30.06,10.0,NNE,11.5,-,N/A,,Clear,20,2013-01-29 13:53:00
6:53 AM,27.0,24.1,89,30.09,10.0,North,10.4,-,N/A,,Clear,360,2013-01-29 14:53:00
7:53 AM,26.1,21.9,84,30.14,10.0,NNW,8.1,-,N/A,,Clear,340,2013-01-29 15:53:00
8:53 AM,30.0,23.0,75,30.16,10.0,NW,8.1,-,N/A,,Clear,320,2013-01-29 16:53:00
9:53 AM,34.0,25.0,70,30.19,10.0,NW,10.4,-,N/A,,Partly Cloudy,320,2013-01-29 17:53:00
10:53 AM,37.0,25.0,62,30.21,10.0,NNW,6.9,-,N/A,,Partly Cloudy,330,2013-01-29 18:53:00
11:53 AM,39.0,26.1,60,30.22,10.0,WNW,9.2,-,N/A,,Partly Cloudy,290,2013-01-29 19:53:00
12:53 PM,39.9,28.0,63,30.21,10.0,Calm,Calm,-,N/A,,Mostly Cloudy,0,2013-01-29 20:53:00
1:53 PM,39.9,28.9,65,30.21,10.0,SSW,5.8,-,N/A,,Overcast,200,2013-01-29 21:53:00
2:53 PM,39.9,28.9,65,30.22,10.0,South,3.5,-,N/A,,Scattered Clouds,190,2013-01-29 22:53:00
3:53 PM,39.0,28.9,67,30.21,10.0,Calm,Calm,-,N/A,,Scattered Clouds,0,2013-01-29 23:53:00
4:53 PM,37.0,28.9,73,30.20,10.0,South,4.6,-,N/A,,Partly Cloudy,170,2013-01-30 00:53:00
5:53 PM,34.0,28.0,79,30.18,10.0,South,6.9,-,N/A,,Clear,170,2013-01-30 01:53:00
6:53 PM,33.1,28.0,82,30.16,10.0,South,3.5,-,N/A,,Clear,170,2013-01-30 02:53:00
7:53 PM,33.1,28.0,82,30.15,10.0,Calm,Calm,-,N/A,,Clear,0,2013-01-30 03:53:00
8:53 PM,32.0,28.0,85,30.15,10.0,Calm,Calm,-,N/A,,Partly Cloudy,0,2013-01-30 04:53:00
10:53 PM,28.9,26.1,89,30.16,10.0,Calm,Calm,-,N/A,,Clear,0,2013-01-30 06:53:00
11:53 PM,30.0,27.0,88,30.15,10.0,Calm,Calm,-,N/A,,Clear,0,2013-01-30 07:53:00